Weather History for Poteau, OK

Change the Weather History Date:

Wednesday, November 27, 2013

  Actual Average (KFSM) Record (KFSM)
Temperature  
Mean Temperature 32 °F 47 °F  
Max Temperature 41 °F 57 °F 81 °F (1964)
Min Temperature 24 °F 36 °F 13 °F (1975)
Degree Days  
Heating Degree Days 32 18  
Month to date heating degree days 354  
Since 1 July heating degree days 508  
Moisture  
Dew Point 21 °F    
Average Humidity 65    
Maximum Humidity 100    
Minimum Humidity 39    
Precipitation  
Precipitation 0.00 in 0.14 in 1.02 in (1918)
Month to date precipitation 4.01  
Year to date precipitation 41.74  
Sea Level Pressure  
Sea Level Pressure 30.40 in    
Wind  
Wind Speed 7 mph (North)    
Max Wind Speed 16 mph    
Max Gust Speed 20 mph    
Visibility 10 miles    
Events      
T = Trace of Precipitation, MM = Missing Value Source: NWS Daily Summary

Daily Weather History Graph

Daily Weather History Graph

Search for Another Location

Airport:

Trip Planner

Search our weather history database for the weather conditions in past years. The results will help you decide how hot, cold, wet, or windy it might be!

Date:

Astronomy

Nov. 27, 2013 Rise Set
Actual Time 7:04 AM CST 5:07 PM CST
Civil Twilight 6:37 AM CST 5:35 PM CST
Nautical Twilight 6:06 AM CST 6:06 PM CST
Astronomical Twilight 5:35 AM CST 6:36 PM CST
Moon 1:20 AM CST (11/27) 1:34 PM CST (11/27)
Length of Visible Light 10h 57m
Length of Day
10h 02m
Waning Crescent, 31% of the Moon is Illuminated
Nov 27
Waning Crescent
Dec 2
New
Dec 9
First Quarter
Dec 17
Full
Dec 25
Last Quarter

Hourly Weather History & Observations

Time (CST) Temp. Windchill Dew Point Humidity Pressure Visibility Wind Dir Wind Speed Gust Speed Precip Events Conditions
12:15 AM 35.6 °F 28.0 °F 26.6 °F 70% 30.35 in 10.0 mi NNW 10.4 mph 17.3 mph N/A   Unknown
12:35 AM 35.6 °F 28.6 °F 24.8 °F 65% 30.35 in 10.0 mi NNW 9.2 mph - N/A   Unknown
12:55 AM 33.8 °F 26.4 °F 23.0 °F 65% 30.36 in 10.0 mi NNW 9.2 mph - N/A   Unknown
1:15 AM 33.8 °F 26.4 °F 23.0 °F 65% 30.36 in 10.0 mi NNW 9.2 mph - N/A   Unknown
1:35 AM 33.8 °F 27.7 °F 23.0 °F 65% 30.36 in 10.0 mi NNW 6.9 mph - N/A   Unknown
1:55 AM 32.0 °F 24.2 °F 23.0 °F 69% 30.36 in 10.0 mi NNW 9.2 mph - N/A   Unknown
2:15 AM 32.0 °F 24.2 °F 23.0 °F 69% 30.37 in 10.0 mi NNW 9.2 mph - N/A   Unknown
2:35 AM 32.0 °F 23.6 °F 23.0 °F 69% 30.37 in 10.0 mi North 10.4 mph 17.3 mph N/A   Unknown
2:55 AM 32.0 °F 23.0 °F 23.0 °F 69% 30.37 in 10.0 mi North 11.5 mph 19.6 mph N/A   Unknown
3:15 AM 32.0 °F 24.2 °F 23.0 °F 69% 30.38 in 10.0 mi NNW 9.2 mph - N/A   Unknown
3:35 AM 32.0 °F 22.1 °F 21.2 °F 64% 30.38 in 10.0 mi North 13.8 mph 19.6 mph N/A   Unknown
3:55 AM 32.0 °F 21.2 °F 21.2 °F 64% 30.38 in 10.0 mi North 16.1 mph - N/A   Unknown
4:15 AM 32.0 °F 22.5 °F 21.2 °F 64% 30.38 in 10.0 mi North 12.7 mph - N/A   Unknown
4:35 AM 30.2 °F 20.8 °F 19.4 °F 64% 30.38 in 10.0 mi North 11.5 mph - N/A   Unknown
4:55 AM 30.2 °F 21.3 °F 19.4 °F 64% 30.39 in 10.0 mi North 10.4 mph - N/A   Unknown
5:15 AM 30.2 °F 21.9 °F 19.4 °F 64% 30.40 in 10.0 mi North 9.2 mph - N/A   Unknown
5:35 AM 28.4 °F 21.2 °F 19.4 °F 69% 30.41 in 10.0 mi North 6.9 mph - N/A   Unknown
5:55 AM 28.4 °F 22.2 °F 19.4 °F 69% 30.42 in 10.0 mi North 5.8 mph - N/A   Unknown
6:15 AM 26.6 °F 21.2 °F 17.6 °F 69% 30.44 in 10.0 mi North 4.6 mph - N/A   Unknown
6:35 AM 26.6 °F 21.2 °F 17.6 °F 69% 30.44 in 10.0 mi North 4.6 mph - N/A   Unknown
6:55 AM 26.6 °F 19.1 °F 17.6 °F 69% 30.44 in 10.0 mi North 6.9 mph - N/A   Unknown
7:15 AM 26.6 °F 20.0 °F 17.6 °F 69% 30.45 in 10.0 mi North 5.8 mph - N/A   Unknown
7:35 AM 26.6 °F 21.2 °F 17.6 °F 69% 30.45 in 10.0 mi North 4.6 mph - N/A   Unknown
7:55 AM 30.2 °F 23.4 °F 17.6 °F 60% 30.45 in 10.0 mi North 6.9 mph - N/A   Unknown
8:15 AM 30.2 °F 21.9 °F 17.6 °F 60% 30.46 in 10.0 mi NNW 9.2 mph - N/A   Unknown
8:35 AM 32.0 °F 25.6 °F 17.6 °F 55% 30.47 in 10.0 mi North 6.9 mph - N/A   Unknown
8:55 AM 32.0 °F 24.2 °F 17.6 °F 55% 30.48 in 10.0 mi NNW 9.2 mph - N/A   Unknown
9:15 AM 32.0 °F 23.6 °F 17.6 °F 55% 30.48 in 10.0 mi North 10.4 mph - N/A   Unknown
9:35 AM 32.0 °F 24.8 °F 15.8 °F 51% 30.48 in 10.0 mi North 8.1 mph - N/A   Unknown
9:55 AM 32.0 °F 26.4 °F 14.0 °F 48% 30.48 in 10.0 mi NNE 5.8 mph - N/A   Unknown
10:15 AM 32.0 °F 24.8 °F 15.8 °F 51% 30.48 in 10.0 mi North 8.1 mph - N/A   Unknown
10:35 AM 33.8 °F 27.7 °F 17.6 °F 52% 30.48 in 10.0 mi North 6.9 mph - N/A   Unknown
10:55 AM 33.8 °F 26.4 °F 17.6 °F 52% 30.47 in 10.0 mi North 9.2 mph - N/A   Unknown
11:15 AM 33.8 °F 25.8 °F 17.6 °F 52% 30.46 in 10.0 mi North 10.4 mph - N/A   Unknown
11:35 AM 35.6 °F 30.7 °F 17.6 °F 48% 30.45 in 10.0 mi North 5.8 mph - N/A   Unknown
11:55 AM 35.6 °F 29.9 °F 17.6 °F 48% 30.43 in 10.0 mi North 6.9 mph - N/A   Unknown
12:15 PM 35.6 °F 30.7 °F 17.6 °F 48% 30.42 in 10.0 mi North 5.8 mph - N/A   Unknown
12:35 PM 35.6 °F 32.8 °F 17.6 °F 48% 30.41 in 10.0 mi NNW 3.5 mph - N/A   Unknown
12:55 PM 37.4 °F 32.8 °F 17.6 °F 45% 30.41 in 10.0 mi NNE 5.8 mph - N/A   Unknown
1:15 PM 37.4 °F 32.1 °F 17.6 °F 45% 30.40 in 10.0 mi NNE 6.9 mph - N/A   Unknown
1:35 PM 37.4 °F 31.4 °F 17.6 °F 45% 30.39 in 10.0 mi North 8.1 mph - N/A   Unknown
1:55 PM 37.4 °F 32.1 °F 17.6 °F 45% 30.38 in 10.0 mi North 6.9 mph - N/A   Unknown
2:15 PM 39.2 °F 35.9 °F 19.4 °F 45% 30.37 in 10.0 mi North 4.6 mph - N/A   Unknown
2:35 PM 41.0 °F 38.0 °F 17.6 °F 39% 30.37 in 10.0 mi NNE 4.6 mph - N/A   Unknown
2:55 PM 39.2 °F - 17.6 °F 42% 30.36 in 10.0 mi Calm Calm - N/A   Unknown
3:15 PM 39.2 °F - 17.6 °F 42% 30.36 in 10.0 mi Calm Calm - N/A   Unknown
3:35 PM 41.0 °F 37.1 °F 17.6 °F 39% 30.36 in 10.0 mi North 5.8 mph - N/A   Unknown
3:55 PM 41.0 °F - 17.6 °F 39% 30.36 in 10.0 mi Calm Calm - N/A   Unknown
4:15 PM 41.0 °F - 17.6 °F 39% 30.36 in 10.0 mi Calm Calm - N/A   Unknown
4:35 PM 37.4 °F - 17.6 °F 45% 30.36 in 10.0 mi Calm Calm - N/A   Unknown
4:55 PM 37.4 °F - 17.6 °F 45% 30.36 in 10.0 mi Calm Calm - N/A   Unknown
5:15 PM 37.4 °F - 19.4 °F 48% 30.36 in 10.0 mi Calm Calm - N/A   Unknown
5:35 PM 33.8 °F - 24.8 °F 70% 30.35 in 10.0 mi Calm Calm - N/A   Unknown
5:55 PM 32.0 °F - 26.6 °F 80% 30.36 in 10.0 mi Calm Calm - N/A   Unknown
6:15 PM 32.0 °F - 24.8 °F 75% 30.36 in 10.0 mi Calm Calm - N/A   Unknown
6:35 PM 32.0 °F - 26.6 °F 80% 30.36 in 10.0 mi Calm Calm - N/A   Unknown
6:55 PM 32.0 °F - 26.6 °F 80% 30.36 in 10.0 mi Calm Calm - N/A   Unknown
7:15 PM 32.0 °F - 28.4 °F 87% 30.37 in 10.0 mi Calm Calm - N/A   Unknown
7:35 PM 30.2 °F - 24.8 °F 80% 30.37 in 10.0 mi Calm Calm - N/A   Unknown
7:55 PM 30.2 °F - 26.6 °F 86% 30.37 in 10.0 mi Calm Calm - N/A   Unknown
8:15 PM 30.2 °F - 26.6 °F 86% 30.37 in 10.0 mi Calm Calm - N/A   Unknown
8:35 PM 28.4 °F - 26.6 °F 93% 30.37 in 10.0 mi Calm Calm - N/A   Unknown
8:55 PM 28.4 °F - 24.8 °F 86% 30.37 in 10.0 mi Calm Calm - N/A   Unknown
9:15 PM 28.4 °F - 24.8 °F 86% 30.37 in 10.0 mi Calm Calm - N/A   Unknown
9:35 PM 26.6 °F - 23.0 °F 86% 30.37 in 10.0 mi Calm Calm - N/A   Unknown
9:55 PM 26.6 °F - 23.0 °F 86% 30.37 in 10.0 mi Calm Calm - N/A   Unknown
10:15 PM 26.6 °F - 24.8 °F 93% 30.37 in 10.0 mi Calm Calm - N/A   Unknown
10:35 PM 26.6 °F - 24.8 °F 93% 30.38 in 10.0 mi Calm Calm - N/A   Unknown
10:55 PM 24.8 °F - 23.0 °F 93% 30.38 in 10.0 mi Calm Calm - N/A   Unknown
11:15 PM 24.8 °F - 24.8 °F 100% 30.38 in 10.0 mi Calm Calm - N/A   Unknown
11:35 PM 24.8 °F - 23.0 °F 93% 30.38 in 10.0 mi Calm Calm - N/A   Unknown
11:55 PM 26.6 °F - 23.0 °F 86% 30.39 in 10.0 mi Calm Calm - N/A   Unknown